Weather in Guapi

Colombia     2°20′59″N   77°41′09″W
temp.,
°C
wind,
m/s
gust,
m/s
humid.,
%
clouds,
%
prec.,
mm/h
press.,
hPa
HPBL,
m
14 may, fri
fri1401:00+23ssw1498100 5.7 1011211
04:00+23sw1599100 0.6 1009269
07:00+23sw139871 1.1 1010174
10:00+27wnw2283100 0.4 1011677
13:00+27nw1289100 7.0 1010493
16:00+25nnw2395100 10.6 1008297
19:00+23ne1198100 17.1 101167
22:00+23sse1198100 3.3 101326
15 may, sat
sat1501:00+22ssw1499100 4.8 1012157
04:00+22ssw1399100 0.8 1011149
07:00+23ssw019762 1.3 101282
10:00+27w2282100 0.6 1013715
13:00+27sw128766 5.2 1010621
16:00+26wsw119099 8.3 1008276
19:00+23se009684 15.5 101111
22:00+23sw129999 7.9 1012111
16 may, sun
sun1601:00+22ese01100100 25.2 1012104
04:00+22sse1299100 13.4 1011112
07:00+22ese1199100 23.2 101241
10:00+25sw128894 0.8 1014399
13:00+25n119256 1.8 1012328
16:00+25nw119068 3.9 1010383
19:00+23ese0196100 9.3 101215
22:00+22s1198100 1.4 101342
17 may, mon
mon1701:00+22wsw0099100 1.9 101226
04:00+22sse1199100 0.5 101151
07:00+23se119898 0.9 101237
10:00+26w118723 1.6 1013482
13:00+27nw228889 7.5 1011547
16:00+25nw239390 9.3 1010332
19:00+23w1298100 18.6 101191
22:00+22sse0199100 15.4 101461
18 may, tue
tue1801:00+22s1499100 17.9 1013185
04:00+22ssw119981 2.3 101255
07:00+22sw1198100 2.4 101372
10:00+25w118596 0.2 1014563
13:00+26nw228972 2.6 1012565
16:00+24ne019698 6.4 1010127
19:00+23ene1198100 10.9 101244
22:00+22sse1298100 4.4 101453